This demonstration page uses our WeatherBlox Daily Observations layout. Learn more.

Left ArrowRight Arrow

34.74481, -87.66753

Hourly Observations for March 11, 2022

Temp ( °F °C ) Dew Point ( °F °C ) Humidity (%) Winds ( mph kmh ) Pressure ( in mb ) Visibility ( mi km ) Precip ( " mm )
12:53 am 00:53 Clear 45 7.2 39 3.9 80 80 Calm 29.97 1015 10 16 0.00 0.00
1:53 am 01:53 Clear 43 6.1 40 4.4 89 89 E 3 6 29.96 1015 10 16 0.00 0.00
2:53 am 02:53 Clear 44 6.7 39 3.9 83 83 Calm 29.94 1014 10 16 0.00 0.00
3:53 am 03:53 Clear 44 6.7 39 3.9 83 83 ENE 3 6 29.93 1014 10 16 0.00 0.00
4:53 am 04:53 Clear 40 4.4 37 2.8 89 89 Calm 29.97 1015 10 16 0.00 0.00
5:53 am 05:53 Clear 40 4.4 37 2.8 89 89 Calm 29.98 1015 10 16 0.00 0.00
6:53 am 06:53 Sunny with Mist and Fog 40 4.4 39 3.9 97 97 SSE 3 6 30.00 1016 5 8 0.00 0.00
7:53 am 07:53 Sunny with Mist and Fog 47 8.3 43 6.1 86 86 Calm 29.99 1016 6 10 0.00 0.00
8:53 am 08:53 Sunny 54 12.2 44 6.7 69 69 E 3 6 29.98 1015 10 16 0.00 0.00
9:53 am 09:53 Sunny 60 15.6 45 7.2 58 58 Calm 29.97 1015 10 16 0.00 0.00
10:53 am 10:53 Mostly Sunny 65 18.3 43 6.1 45 45 SW 3 6 29.94 1014 10 16 0.00 0.00
11:53 am 11:53 Mostly Sunny 68 20 42 5.6 39 39 Calm 29.93 1014 10 16 0.00 0.00
12:53 pm 12:53 Sunny 69 20.6 44 6.7 41 41 NNW 6 9 29.89 1012 10 16 0.00 0.00
1:53 pm 13:53 Sunny 70 21.1 44 6.7 39 39 W 5 7 29.86 1011 10 16 0.00 0.00
2:53 pm 14:53 Mostly Sunny 70 21.1 42 5.6 37 37 NW 8 13 29.83 1010 10 16 0.00 0.00
3:53 pm 15:53 Partly Cloudy 68 20 42 5.6 39 39 NW 6 9 29.80 1009 10 16 0.00 0.00
4:53 pm 16:53 Mostly Cloudy 61 16.1 40 4.4 46 46 NNW 15 24 29.83 1010 10 16 0.00 0.00
5:53 pm 17:53 Cloudy 55 12.8 40 4.4 57 57 NNW 13 20 29.83 1010 10 16 0.00 0.00
6:53 pm 18:53 Cloudy 51 10.6 37 2.8 59 59 N 10 17 29.83 1010 10 16 0.00 0.00
7:53 pm 19:53 Cloudy 47 8.3 35 1.7 63 63 N 12 19 29.90 1012 10 16 0.00 0.00
8:16 pm 20:16 Cloudy 44 6.7 33 0.6 65 65 N 21 33 29.93 1014 10 16 0.00 0.00
8:53 pm 20:53 Cloudy with Light Rain 40 4.4 31 -0.6 70 70 N 16 26 29.96 1015 10 16 0.00 0.00
9:53 pm 21:53 Cloudy with Light Snow 36 2.2 30 -1.1 79 79 N 15 24 29.99 1016 6 10 0.04 1.02
10:07 pm 22:07 Cloudy with Light Snow 34 1.1 30 -1.1 85 85 N 12 19 30.01 1016 2 3 0.01 0.25
10:12 pm 22:12 Cloudy with Light Snow 33 0.6 30 -1.1 89 89 N 14 22 30.00 1016 1 1 0.01 0.25
10:37 pm 22:37 Cloudy with Light Snow 33 0.6 30 -1.1 89 89 N 15 24 30.02 1017 1 2 0.03 0.76
10:53 pm 22:53 Cloudy with Light Snow 33 0.6 30 -1.1 89 89 NNW 14 22 30.01 1016 1 1 0.03 0.76
10:56 pm 22:56 Cloudy with Light Snow 33 0.6 30 -1.1 89 89 N 14 22 30.04 1017 1 2 0.00 0.00
11:09 pm 23:09 Cloudy with Light Snow 33 0.6 30 -1.1 89 89 NNW 14 22 30.05 1018 1 2 0.01 0.25
11:16 pm 23:16 Cloudy with Light Snow 33 0.6 30 -1.1 89 89 NNW 15 24 30.06 1018 1 2 0.01 0.25
11:24 pm 23:24 Cloudy with Snow 32 0 29 -1.7 88 88 NNW 16 26 30.06 1018 1 1 0.02 0.51
11:53 pm 23:53 Cloudy with Snow 31 -0.6 28 -2.2 89 89 N 10 17 30.01 1016 1 1 0.02 0.51

Powered by AerisWeather